Location: Middle Street
(51.7167°N, 0.0333°E)
Time: 20:01:44
(UTC+00:00)

Cosmos 2297 Rocket - Pass Details

Date: 20 January 2021
Orbit: 841 x 842 km, 71.0° (Epoch: 27 February)

Event Time Altitude Azimuth Distance (km) Brightness Sun altitude
Rises 18:27:47 0° 276° (W) 3,399 6.8 -18.1°
Reaches altitude 10° 18:31:19 10° 299° (WNW) 2,467 5.4 -18.6°
Maximum altitude 18:34:38 16° 335° (NNW) 2,096 4.4 -19.1°
Drops below altitude 10° 18:37:58 10° 11° (N) 2,471 4.4 -19.6°
Enters shadow 18:38:54 - 19° (NNE) 2,681 4.6 -19.8°
